Soldotna, AK

12:15 PM AKDT on July 27, 2017 (GMT -0800)
Soldotna

Weather History for PASX - September, 2014

Change the Weather History Date:

Friday, September 12, 2014

  Actual Average Record
Temperature  
Mean Temperature 58 °F -  
Max Temperature 62 °F 55 °F 68 °F (2010)
Min Temperature 55 °F 40 °F 28 °F (2006)
Degree Days  
Heating Degree Days 6    
Growing Degree Days 8 (Base 50)    
Moisture  
Dew Point 49 °F    
Average Humidity 72    
Maximum Humidity 88    
Minimum Humidity 63    
Precipitation  
Precipitation 0.06 in - - ()
Sea Level Pressure  
Sea Level Pressure 29.73 in    
Wind  
Wind Speed 9 mph (ENE)    
Max Wind Speed 18 mph    
Max Gust Speed 26 mph    
Visibility 10 miles    
Events      
Averages and records for this station are not official NWS values.
T = Trace of Precipitation, MM = Missing Value Source: NWS Daily Summary

Daily Weather History Graph

Daily Weather History Graph

Search for Another Location

Airport or City:

Trip Planner

Search our weather history database for the weather conditions in past years. The results will help you decide how hot, cold, wet, or windy it might be!

Date:

Astronomy

Sep. 12, 2014 Rise Set
Actual Time 7:24 AM AKDT 8:34 PM AKDT
Civil Twilight 6:41 AM AKDT 9:17 PM AKDT
Nautical Twilight 5:47 AM AKDT 10:11 PM AKDT
Astronomical Twilight 4:44 AM AKDT 11:12 PM AKDT
Moon 9:46 PM AKDT (9/12) 12:52 PM AKDT (9/12)
Length of Visible Light 14h 35m
Length of Day
13h 09m
Waning Gibbous, 82% of the Moon is Illuminated
Sep 12
Waning Gibbous
Sep 15
Last Quarter
Sep 23
New
Oct 1
First Quarter
Oct 8
Full

Hourly Weather History & Observations

Time (AKDT) Temp. Dew Point Humidity Pressure Visibility Wind Dir Wind Speed Gust Speed Precip Events Conditions
12:16 AM - - N/A% 29.95 in 10.0 mi NE 11.5 mph - N/A   Overcast
12:36 AM 57.2 °F 46.4 °F 67% 29.94 in 10.0 mi NE 8.1 mph - N/A   Overcast
12:56 AM 57.2 °F 46.4 °F 67% 29.94 in 10.0 mi NE 9.2 mph - N/A   Overcast
1:16 AM 57.2 °F 46.4 °F 67% 29.93 in 10.0 mi NE 8.1 mph - N/A   Mostly Cloudy
1:36 AM 55.4 °F 46.4 °F 72% 29.92 in 10.0 mi ENE 10.4 mph - N/A   Mostly Cloudy
1:56 AM 55.4 °F 46.4 °F 72% 29.91 in 10.0 mi NE 8.1 mph - N/A   Mostly Cloudy
2:16 AM 55.4 °F 46.4 °F 72% 29.90 in 10.0 mi NE 9.2 mph - N/A   Overcast
2:36 AM 55.4 °F 46.4 °F 72% 29.89 in 10.0 mi NE 9.2 mph - N/A   Overcast
2:56 AM 55.4 °F 46.4 °F 72% 29.88 in 10.0 mi NE 8.1 mph - N/A   Overcast
3:16 AM 55.4 °F 46.4 °F 72% 29.87 in 10.0 mi NE 8.1 mph - N/A   Overcast
3:36 AM 55.4 °F 46.4 °F 72% 29.86 in 10.0 mi NE 8.1 mph - N/A   Overcast
3:56 AM 55.4 °F 46.4 °F 72% 29.85 in 10.0 mi NE 9.2 mph - N/A   Overcast
4:16 AM 55.4 °F 46.4 °F 72% 29.85 in 10.0 mi NE 4.6 mph - N/A   Overcast
4:36 AM 55.4 °F 46.4 °F 72% 29.84 in 10.0 mi NNE 5.8 mph - N/A   Overcast
4:56 AM 55.4 °F 46.4 °F 72% 29.83 in 10.0 mi NNE 5.8 mph - N/A   Overcast
5:16 AM 55.4 °F 46.4 °F 72% 29.83 in 10.0 mi ENE 4.6 mph - N/A   Overcast
5:36 AM 55.4 °F 46.4 °F 72% 29.82 in 10.0 mi NE 5.8 mph - N/A   Overcast
5:56 AM 55.4 °F 46.4 °F 72% 29.82 in 10.0 mi NNE 5.8 mph - N/A   Overcast
6:16 AM 55.4 °F 46.4 °F 72% 29.81 in 10.0 mi NE 6.9 mph - N/A   Overcast
6:36 AM 57.2 °F 46.4 °F 67% 29.81 in 10.0 mi NE 8.1 mph - N/A   Overcast
6:56 AM 55.4 °F 46.4 °F 72% 29.80 in 10.0 mi NNE 4.6 mph - N/A   Overcast
7:16 AM 55.4 °F 46.4 °F 72% 29.79 in 10.0 mi NE 8.1 mph - N/A   Overcast
7:36 AM 55.4 °F 46.4 °F 72% 29.79 in 10.0 mi NE 9.2 mph - N/A   Overcast
7:56 AM 57.2 °F 46.4 °F 67% 29.78 in 10.0 mi NE 8.1 mph - N/A   Overcast
8:16 AM 57.2 °F 46.4 °F 67% 29.78 in 10.0 mi NE 9.2 mph - N/A   Overcast
8:36 AM 57.2 °F 46.4 °F 67% 29.77 in 10.0 mi NE 8.1 mph - N/A   Overcast
8:56 AM 57.2 °F 46.4 °F 67% 29.77 in 10.0 mi NE 9.2 mph - N/A   Overcast
9:16 AM 57.2 °F 46.4 °F 67% 29.76 in 10.0 mi NE 5.8 mph - N/A   Overcast
9:36 AM 57.2 °F 46.4 °F 67% 29.76 in 10.0 mi NE 5.8 mph - N/A   Overcast
9:56 AM 57.2 °F 46.4 °F 67% 29.75 in 10.0 mi NNE 4.6 mph - N/A   Overcast
10:16 AM 57.2 °F 46.4 °F 67% 29.75 in 10.0 mi NNE 4.6 mph - N/A   Overcast
10:36 AM 57.2 °F 48.2 °F 72% 29.74 in 10.0 mi NE 3.5 mph - N/A   Overcast
10:56 AM 57.2 °F 50.0 °F 77% 29.73 in 10.0 mi NNE 3.5 mph - N/A   Overcast
11:16 AM 57.2 °F 51.8 °F 82% 29.73 in 10.0 mi NNE 3.5 mph - N/A   Overcast
11:36 AM 59.0 °F 51.8 °F 77% 29.73 in 10.0 mi NE 6.9 mph - N/A   Overcast
11:56 AM 59.0 °F 50.0 °F 72% 29.73 in 10.0 mi ENE 6.9 mph - N/A   Overcast
12:16 PM 59.0 °F 51.8 °F 77% 29.72 in 10.0 mi East 10.4 mph - N/A   Overcast
12:36 PM 60.8 °F 51.8 °F 72% 29.71 in 10.0 mi ENE 12.7 mph - N/A   Overcast
12:56 PM 60.8 °F 51.8 °F 72% 29.70 in 10.0 mi ENE 10.4 mph 18.4 mph N/A   Mostly Cloudy
1:16 PM - - N/A% 29.69 in 10.0 mi East 12.7 mph 18.4 mph N/A   Mostly Cloudy
1:36 PM - - N/A% 29.68 in 10.0 mi East 16.1 mph 25.3 mph N/A   Overcast
1:56 PM - - N/A% 29.68 in 10.0 mi East 18.4 mph 26.5 mph N/A   Overcast
2:16 PM 62.6 °F 50.0 °F 63% 29.68 in 10.0 mi East 15.0 mph 26.5 mph N/A   Overcast
2:36 PM 62.6 °F 50.0 °F 63% 29.67 in 10.0 mi East 16.1 mph 21.9 mph N/A   Overcast
2:56 PM - - N/A% 29.66 in 10.0 mi East 17.3 mph 24.2 mph N/A   Overcast
3:16 PM - - N/A% 29.67 in 10.0 mi East 12.7 mph 19.6 mph N/A   Overcast
3:36 PM - - N/A% 29.67 in 10.0 mi East 9.2 mph - N/A   Overcast
3:56 PM - - N/A% 29.66 in 10.0 mi East 8.1 mph - 0.01 in   Overcast
4:16 PM 60.8 °F 53.6 °F 77% 29.66 in 10.0 mi ENE 3.5 mph - N/A   Overcast
4:36 PM 60.8 °F 55.4 °F 82% 29.65 in 10.0 mi ENE 5.8 mph - 0.01 in   Overcast
4:56 PM 60.8 °F 55.4 °F 82% 29.64 in 10.0 mi East 6.9 mph - 0.01 in   Overcast
5:16 PM 60.8 °F 53.6 °F 77% 29.63 in 10.0 mi East 9.2 mph - N/A   Overcast
5:36 PM 60.8 °F 51.8 °F 72% 29.62 in 10.0 mi East 11.5 mph - N/A   Overcast
5:56 PM 62.6 °F 53.6 °F 72% 29.61 in 10.0 mi East 5.8 mph - N/A   Mostly Cloudy
6:16 PM 62.6 °F 53.6 °F 72% 29.60 in 10.0 mi East 8.1 mph - N/A   Mostly Cloudy
6:36 PM 62.6 °F 51.8 °F 68% 29.60 in 10.0 mi NE 6.9 mph - N/A   Mostly Cloudy
6:56 PM - - N/A% 29.59 in 10.0 mi East 13.8 mph 17.3 mph N/A   Mostly Cloudy
7:16 PM 62.6 °F 51.8 °F 68% 29.59 in 10.0 mi ESE 13.8 mph 20.7 mph N/A   Mostly Cloudy
7:36 PM 62.6 °F 51.8 °F 68% 29.60 in 10.0 mi ESE 10.4 mph 18.4 mph N/A   Overcast
7:56 PM 62.6 °F 51.8 °F 68% 29.60 in 10.0 mi East 11.5 mph - N/A   Overcast
8:16 PM 62.6 °F 51.8 °F 68% 29.60 in 10.0 mi ESE 5.8 mph - N/A   Overcast
8:36 PM 62.6 °F 51.8 °F 68% 29.58 in 10.0 mi East 11.5 mph - N/A   Overcast
8:56 PM 62.6 °F 50.0 °F 63% 29.58 in 10.0 mi East 9.2 mph - N/A   Overcast
9:16 PM 62.6 °F 50.0 °F 63% 29.58 in 10.0 mi ESE 10.4 mph - N/A   Overcast
9:36 PM 60.8 °F 51.8 °F 72% 29.59 in 10.0 mi East 11.5 mph - N/A   Overcast
9:56 PM 59.0 °F 51.8 °F 77% 29.58 in 10.0 mi ESE 9.2 mph - 0.01 in   Overcast
10:16 PM 57.2 °F 51.8 °F 82% 29.58 in 10.0 mi East 8.1 mph - 0.02 in   Overcast
10:36 PM 57.2 °F 51.8 °F 82% 29.59 in 10.0 mi ESE 3.5 mph - 0.03 in   Overcast
10:56 PM 57.2 °F 51.8 °F 82% 29.58 in 10.0 mi ENE 3.5 mph - 0.03 in   Overcast
11:16 PM 57.2 °F 53.6 °F 88% 29.58 in 10.0 mi East 4.6 mph - N/A   Overcast
11:36 PM 59.0 °F 51.8 °F 77% 29.58 in 10.0 mi SE 4.6 mph - N/A   Overcast
11:56 PM 59.0 °F 51.8 °F 77% 29.59 in 10.0 mi Calm Calm - N/A   Overcast